Miscellaneous Local Product
Issued by NWS North Platte, NE

Home | Current Version | Previous Version | Text Only | Print | Product List | Glossary On
Versions: 1 2 3 4 5 6 7 8 9 10 11 12 13 14 15 16 17 18 19 20 21 22 23 24 25 26 27 28 29 30 31 32 33 34 35 36 37 38 39 40 41 42 43 44 45 46 47 48 49 50
379
AXUS43 KLBF 212210
MISLBF


WESTERN AND NORTH CENTRAL NEBRASKA HOURLY WEATHER ROUNDUP
NATIONAL WEATHER SERVICE NORTH PLATTE NE
400 PM CST SAT JAN 21 2017

NOTE: "FAIR" INDICATES FEW OR NO CLOUDS BELOW 12,000 FEET WITH NO
SIGNIFICANT WEATHER AND/OR OBSTRUCTIONS TO VISIBILITY.

NOTE: STATIONS NOT REPORTING VARIABLES SUCH AS SKY/WEATHER OR
PRESSURE ARE PROVIDED BY RAWS AND APRS NETWORKS AND ARE NOT UNDER
NATIONAL WEATHER SERVICE QUALITY CONTROL.

...OBSERVATIONS IN AND NEAR THE EASTERN PANHANDLE OF NEBRASKA...

CITY           SKY/WX    TMP DP  RH WIND       PRES   REMARKS
PINE RIDGE     SUNNY     35  29  78 SW5       29.44R WCI  31
CHADRON        SUNNY     36  29  75 SW5       29.45R WCI  32
ALLIANCE       SUNNY     45  27  49 W7        29.41R
SIDNEY         CLOUDY    43  24  47 S3        29.42R
CRESCENT LAKE    N/A     43  26  50 NW3         N/A
$$

...OBSERVATIONS IN NORTHERN NEBRASKA AND FAR SOUTHERN SOUTH DAKOTA...

CITY           SKY/WX    TMP DP  RH WIND       PRES   REMARKS
WINNER         FAIR      46  32  58 NW12      29.44R
VALENTINE      SUNNY     45  30  55 NW10      29.44R
THEDFORD       SUNNY     50  31  47 NW8       29.43R
AINSWORTH      MOSUNNY   46  33  60 NW7       29.43R
O`NEILL        SUNNY     50  31  48 NW10      29.43R
ORD            SUNNY     50  33  52 CALM      29.42R
BROKEN BOW     SUNNY     50  36  58 CALM      29.42R
VALENTINE NWR    N/A     46  32  58 N8          N/A
BUTTE            N/A     45  32  61 W13         N/A
HALSEY           N/A     52  32  47 NW3         N/A
SARGENT          N/A     50  36  58 CALM        N/A
CHAMBERS         N/A     50  30  46 CALM        N/A
EWING            N/A     49  35  59 NW7         N/A
$$

...OBSERVATIONS IN SOUTHWEST NEBRASKA AND FAR NORTHEAST COLORADO...

CITY           SKY/WX    TMP DP  RH WIND       PRES   REMARKS
HOLYOKE        FAIR      48  28  46 E3        29.43R
IMPERIAL       CLOUDY    47  27  45 NE5       29.43R
OGALLALA       CLOUDY    46  27  47 CALM      29.44R
NORTH PLATTE   SUNNY     49  32  52 W5        29.44R
MCCOOK         SUNNY     52  29  41 N3        29.42S
LEXINGTON      SUNNY     50  32  50 NW3       29.43R
STAPLETON        N/A     49  31  51 CALM        N/A
GOTHENBURG       N/A     51  30  44 NW3         N/A
CALLAWAY         N/A     49  35  59 NW7         N/A
$$

...OBSERVATIONS IN CENTRAL LINCOLN COUNTY AREA...

CITY           SKY/WX    TMP DP  RH WIND       PRES   REMARKS
N.P. AIRPORT   SUNNY     49  32  52 W5        29.44R
N.P. DOWNTOWN    N/A     47  34  61 CALM        N/A
N.P. SOUTHEAST   N/A     48  33  55 CALM        N/A
N.P. HILLCREST   N/A     47  35  63 W3          N/A
$$

...SOME OBSERVATIONS FROM AROUND THE REGION...

CITY           SKY/WX    TMP DP  RH WIND       PRES   REMARKS
LARAMIE        CLOUDY    27  18  69 NW6       29.40R WCI  20
CHEYENNE       CLOUDY    40  18  41 VRB3      29.40R
DENVER         CLOUDY    38  25  59 E7        29.39R WCI  33
AKRON          SUNNY     42  23  46 SE13      29.40R
SCOTTSBLUFF    CLOUDY    42  29  59 CALM      29.42R
RAPID CITY     SUNNY     41  29  62 N8        29.45R
BISMARCK       CLOUDY    32  29  88 W3        29.43R
PIERRE         CLOUDY    30  26  85 W3        29.44R
SIOUX FALLS    CLOUDY    32  29  88 W10       29.43R WCI  24
OMAHA          MOSUNNY   52  37  56 W9        29.45R
GRAND ISLAND   SUNNY     48  37  65 S3        29.44R
KANSAS CITY    PTSUNNY   54  39  57 S8        29.49R
WICHITA        LGT RAIN  48  44  86 E9        29.41S
OKLAHOMA CITY  PTSUNNY   67  37  33 S10       29.35F
DALLAS         CLOUDY    71  57  61 S10       29.38R
AMARILLO       PTSUNNY   44  39  82 W13       29.33F
DODGE CITY     SUNNY     52  36  54 E9        29.35S
HAYS           SUNNY     53  36  52 SE12      29.40S
GOODLAND       MOSUNNY   46  34  62 E10       29.38R
$$




USA.gov is the U.S. government's official web portal to all federal, state and local government web resources and services.